Tracking 30685 objects as of 17-Jun-2025
HD Live streaming from Space Station
objects crossing your sky now

STARLINK-34002

Track STARLINK-34002 now!
10-day predictions
STARLINK-34002 is classified as:


NORAD ID: 63856
Int'l Code: 2025-093W
Perigee: 450.1 km
Apogee: 452.1 km
Inclination: 43.0 °
Period: 93.5 minutes
Semi major axis: 6822 km
RCS: Unknown
Launch date: May 7, 2025
Source: United States (US)
Launch site: AIR FORCE EASTERN TEST RANGE (AFETR)
Your satellite tracking list
Your tracking list is empty




NASA's NSSDC Master Catalog

Two Line Element Set (TLE):
1 63856U 25093W   25168.19385774  .00029873  00000-0  71923-3 0  9997
2 63856  43.0003 137.6398 0001458 269.8834  90.1855 15.40714743  7130
Source of the keplerian elements: AFSPC